Temperature
5 5 5 5 5 5 4 4 3 3 3 4 4 4 4 4 4 4 4 4 4 4 4 4 4 4 4 3 3 3 3 3 3 3 3 3 3 3
5 5 5 4 4 4 4 4 4 3 2 3 3 3 3 4 4 4 4 4 4 4 4 4 3 3 3 3 3 3 3 3 3 3 3 3 2 2
4 4 4 4 4 4 4 3 3 3 2 3 3 3 3 3 3 3 3 3 3 3 3 3 3 3 3 2 2 2 2 2 2 2 2 2 2 2
4 4 4 4 3 3 3 3 3 3 2 2 2 2 2 2 2 2 2 3 3 3 3 2 2 2 2 2 2 2 2 2 1 1 1 2 2 2
3 3 3 3 3 3 3 2 2 2 2 2 2 2 2 2 2 2 2 2 2 2 2 2 2 2 1 1 1 1 1 1 1 1 1 1 1 1
3 3 3 3 2 2 2 2 2 2 2 1 1 2 2 2 1 1 1 1 1 1 1 1 1 1 1 1 1 1 1 1 1 1 1 1 1 1
2 2 2 2 2 2 2 2 1 1 1 1 1 1 1 1 1 1 1 1 1 1 1 1 0 0 0 0 0 0 0 0 0 0 0 0 0 0
2 2 2 2 2 2 2 1 1 1 0 0 0 0 0 0 0 0 -0 -0 -0 -0 -0 -0 -0 -0 -0 -0 -0 0 -0 -0 -0 -0 -0 -0 -0 -0
1 1 1 1 1 1 1 1 1 0 0 0 0 0 -0 -0 -0 -0 -1 -1 -1 -1 -1 -1 -1 -1 -1 -1 -1 -0 -1 -1 -1 -1 -1 -1 -1 -1
1 1 1 1 1 0 0 0 0 0 -0 -0 -0 -0 -1 -1 -1 -1 -1 -1 -1 -1 -2 -2 -1 -1 -1 -1 -1 -1 -1 -1 -1 -1 -1 -1 -1 -1
0 0 0 0 0 -0 -0 -0 -0 -0 -1 -1 -1 -1 -1 -1 -1 -2 -2 -2 -2 -2 -2 -2 -2 -2 -2 -1 -1 -1 -1 -2 -2 -2 -2 -2 -2 -2
-0 -0 -0 -0 -0 -1 -1 -1 -1 -1 -1 -1 -1 -1 -1 -2 -2 -2 -2 -2 -3 -3 -3 -3 -3 -3 -3 -2 -2 -2 -2 -2 -2 -2 -2 -2 -2 -2
-1 -1 -1 -1 -1 -1 -1 -1 -1 -1 -2 -1 -2 -2 -2 -2 -2 -2 -3 -3 -3 -3 -3 -3 -3 -3 -4 -4 -3 -3 -3 -3 -3 -3 -3 -3 -3 -3
-1 -1 -1 -1 -1 -1 -1 -1 -2 -2 -2 -2 -2 -2 -2 -2 -2 -2 -3 -3 -3 -3 -3 -4 -4 -4 -4 -4 -4 -4 -3 -4 -3 -3 -3 -3 -3 -3
-1 -1 -1 -1 -2 -2 -2 -2 -2 -2 -2 -2 -2 -2 -2 -3 -3 -3 -3 -3 -3 -4 -4 -4 -4 -4 -4 -5 -5 -4 -4 -4 -4 -4 -4 -4 -4 -4
-2 -2 -2 -2 -2 -2 -2 -2 -2 -3 -3 -3 -3 -3 -3 -3 -3 -4 -4 -4 -4 -4 -4 -4 -4 -4 -4 -4 -5 -5 -5 -5 -4 -4 -4 -4 -4 -4
-2 -2 -2 -2 -2 -3 -3 -3 -3 -3 -3 -3 -3 -3 -3 -4 -4 -4 -4 -4 -4 -4 -4 -4 -4 -4 -5 -5 -5 -5 -5 -5 -5 -5 -5 -5 -5 -5
-3 -3 -3 -3 -3 -3 -3 -3 -3 -3 -4 -4 -4 -4 -4 -4 -4 -4 -4 -4 -5 -5 -5 -5 -5 -5 -5 -5 -5 -5 -5 -5 -5 -5 -5 -5 -5 -5
-3 -3 -3 -3 -3 -3 -4 -4 -4 -4 -4 -4 -4 -4 -4 -5 -5 -5 -5 -5 -5 -5 -5 -5 -5 -6 -6 -6 -5 -5 -5 -5 -5 -5 -5 -5 -5 -5
-3 -3 -4 -4 -4 -4 -4 -4 -4 -4 -4 -5 -5 -5 -5 -5 -5 -5 -5 -5 -5 -5 -5 -5 -6 -6 -6 -6 -6 -6 -5 -6 -5 -6 -6 -5 -5 -5
-4 -4 -4 -4 -4 -4 -5 -5 -5 -5 -5 -5 -5 -5 -5 -5 -5 -5 -5 -5 -6 -6 -6 -6 -5 -6 -6 -6 -6 -6 -6 -6 -6 -6 -6 -6 -6 -5
-4 -4 -4 -4 -5 -5 -5 -5 -5 -5 -5 -5 -5 -5 -5 -5 -5 -5 -6 -6 -6 -6 -6 -6 -6 -6 -6 -6 -6 -6 -6 -6 -6 -6 -6 -6 -6 -6
-4 -4 -5 -5 -5 -5 -5 -5 -5 -5 -5 -6 -6 -6 -6 -5 -5 -6 -6 -6 -6 -6 -6 -6 -6 -6 -6 -6 -6 -6 -6 -6 -6 -6 -6 -6 -6 -6
Wind_Speed
4 4 4 4 4 4 4 5 5 6 6 5 4 4 5 6 7 8 9 8 10 11 11 11 11 11 12 12 12 13 13 14 14 15 15 15 15 15
4 5 5 4 4 4 4 4 5 6 6 5 5 5 6 6 7 9 9 9 10 10 11 10 11 11 12 13 13 13 14 14 14 14 15 15 15 15
5 5 6 5 4 4 4 5 5 5 7 7 5 6 7 7 7 8 8 9 8 10 11 11 11 12 12 13 13 13 14 14 15 15 15 15 15 15
6 6 6 5 6 5 5 6 6 6 7 8 7 6 7 7 7 7 7 8 8 9 11 12 12 12 12 12 13 13 13 14 14 14 14 15 15 14
6 7 7 7 7 6 6 6 6 6 6 7 7 6 6 6 7 7 7 7 8 9 10 11 11 11 12 12 13 13 13 14 13 13 14 15 14 14
7 7 7 7 8 7 6 7 6 7 6 6 7 6 6 6 5 6 7 6 6 7 8 9 10 11 12 12 13 12 13 13 13 13 14 14 14 14
7 7 7 8 8 8 7 7 7 6 6 6 7 6 6 5 5 5 7 7 7 5 6 6 7 7 8 10 11 11 12 13 13 13 13 13 13 13
7 7 7 7 8 10 11 10 10 9 8 7 7 8 8 7 6 5 6 7 6 4 6 7 6 7 7 8 10 11 11 12 12 13 13 13 13 13
7 6 6 6 8 7 9 10 11 12 12 10 9 9 8 7 6 7 7 8 8 6 6 7 7 7 7 8 11 11 12 12 12 12 12 12 12 11
7 7 7 7 7 7 7 8 9 9 10 9 9 9 8 7 7 7 8 8 8 6 5 6 7 7 7 8 9 10 11 12 11 11 12 11 11 10
7 7 7 7 8 8 8 8 8 7 7 9 10 10 10 9 8 5 5 5 7 6 4 5 5 7 7 7 7 9 10 10 11 10 10 9 9 9
6 6 7 8 8 9 8 8 8 7 6 6 7 8 9 8 9 7 6 6 6 5 3 4 4 4 4 4 5 6 7 8 10 10 10 9 8 7
5 5 5 8 9 9 9 8 8 8 6 6 6 6 5 5 5 6 6 6 7 6 4 3 4 4 5 5 6 6 6 6 7 8 8 9 9 8
6 5 5 7 8 9 8 8 9 8 6 5 5 5 5 5 5 6 7 8 8 9 8 6 5 5 5 7 6 5 6 6 6 6 6 8 8 9
6 7 7 7 7 6 7 8 8 6 5 6 6 6 5 5 5 4 5 6 7 8 8 8 7 6 6 7 6 6 6 6 6 5 5 6 6 6
6 6 7 7 6 6 6 6 5 5 5 6 5 5 4 4 4 4 5 4 5 5 6 7 8 7 7 8 7 8 7 5 5 6 6 6 6 6
5 5 4 4 4 4 4 4 4 5 5 5 5 5 4 4 5 4 4 5 5 5 5 4 5 6 7 7 7 7 7 7 6 6 6 6 6 6
5 5 5 5 5 5 5 5 4 5 5 5 5 5 5 5 5 5 4 5 6 6 5 4 3 3 4 5 7 8 6 6 6 6 6 6 7 6
6 6 5 5 5 5 5 5 5 5 4 5 5 5 5 5 5 5 5 5 6 6 5 4 3 4 5 6 3 6 6 5 5 6 6 6 7 7
5 6 6 6 5 5 5 5 5 5 4 5 5 5 5 5 5 5 5 6 6 5 5 4 4 5 5 5 5 5 6 6 5 6 6 6 6 8
5 6 6 6 5 5 5 5 5 5 5 5 5 5 5 5 6 6 6 6 6 5 6 5 4 4 3 3 4 5 4 5 7 6 5 5 6 5
5 6 5 6 5 5 5 5 5 5 5 5 5 5 5 5 5 6 6 5 5 5 5 4 2 2 3 4 5 5 5 5 5 8 8 7 4 4
6 5 5 5 5 5 5 5 6 6 5 5 5 5 5 5 5 5 5 5 5 5 4 3 3 3 3 4 5 4 5 5 5 5 5 6 9 11
Wind_Direction
220 224 231 237 238 240 240 243 253 267 269 265 264 260 277 279 285 281 281 282 282 281 283 287 289 291 292 292 292 294 296 297 297 296 296 295 295 298
223 224 230 236 237 237 236 237 243 256 268 271 268 280 282 283 286 285 283 284 277 276 280 285 287 288 289 289 291 292 293 294 294 294 295 296 296 296
227 228 231 234 233 235 235 236 241 246 258 270 272 277 277 281 284 285 288 284 281 275 277 281 283 285 285 288 290 290 291 291 291 292 293 293 293 293
232 232 233 235 235 237 237 237 242 246 255 268 272 276 277 279 283 283 286 283 281 277 274 278 280 281 283 285 286 288 289 289 289 289 290 291 292 292
238 238 237 235 237 239 242 245 247 249 250 262 272 278 281 283 288 285 284 282 283 281 278 276 275 279 282 283 283 286 288 288 290 289 288 289 289 291
244 243 243 239 242 243 245 247 249 253 253 259 270 277 281 286 283 286 292 287 284 285 283 280 275 276 278 278 279 283 287 287 287 289 290 287 285 287
250 246 246 245 249 249 248 248 249 253 256 259 266 272 275 280 280 289 293 295 289 284 286 281 281 278 278 274 273 278 283 286 287 288 289 289 287 286
252 253 252 247 246 249 251 253 251 252 253 256 262 264 270 276 282 283 290 293 290 288 291 286 282 277 279 277 278 281 282 285 288 289 288 287 287 285
253 254 255 252 249 250 252 252 252 254 255 258 259 262 269 271 274 277 278 282 279 290 295 284 280 277 280 277 279 279 280 283 286 285 287 287 285 284
254 255 257 257 252 253 258 257 257 254 253 255 261 268 272 272 267 273 279 285 286 278 277 279 284 285 287 280 272 276 280 280 282 284 287 286 285 284
259 257 255 258 255 254 257 259 262 261 259 257 264 269 270 267 264 265 268 277 281 276 265 271 286 294 287 275 272 274 277 278 281 281 285 289 290 290
264 261 255 255 259 257 256 257 262 268 269 268 263 262 261 256 250 249 252 260 275 275 252 258 280 298 291 275 280 281 278 277 281 281 282 286 292 291
265 265 261 254 259 262 261 260 264 273 272 266 266 264 260 255 253 252 251 251 259 264 258 255 267 273 272 286 287 281 281 285 285 283 275 278 283 284
263 268 270 266 264 266 265 263 267 270 265 262 262 262 260 260 260 259 259 259 260 262 263 256 256 259 269 280 283 286 284 283 283 282 284 282 280 281
264 269 274 274 272 270 266 268 267 262 258 257 260 263 263 265 270 271 268 267 269 265 258 253 252 256 255 264 273 282 290 290 283 279 283 285 286 286
267 268 267 267 265 269 273 270 264 261 259 259 264 268 270 268 265 265 266 266 271 272 261 252 250 250 256 260 262 272 276 274 277 284 285 282 282 275
274 271 266 264 264 265 268 270 266 263 261 261 263 264 265 264 267 265 262 261 262 272 275 270 262 260 257 257 259 262 268 273 275 282 286 283 281 276
265 261 261 262 263 265 267 269 266 263 262 260 260 259 258 260 265 264 255 253 259 267 269 269 271 280 278 261 237 252 262 270 277 277 277 278 281 282
257 257 259 261 264 264 266 267 267 265 264 260 259 259 259 260 261 260 256 256 259 265 266 260 252 257 274 287 263 224 254 272 278 279 277 276 277 283
252 255 259 261 261 262 263 264 266 267 262 260 259 258 256 258 259 259 256 255 258 263 263 254 246 246 256 272 281 279 256 258 269 279 288 291 287 285
257 258 260 261 261 261 261 262 264 264 261 260 260 259 257 257 258 260 259 256 254 254 257 259 258 261 269 269 272 276 280 262 263 272 287 294 295 293
263 263 263 261 261 261 261 261 263 262 259 257 260 261 259 254 255 256 256 254 251 252 260 266 254 253 254 256 267 281 293 300 287 275 271 270 275 281
263 264 263 263 262 263 262 261 261 262 259 257 260 261 255 253 253 251 251 252 253 253 259 259 260 263 261 256 266 276 288 299 304 307 299 290 272 273
Height
1493 1494 1494 1494 1494 1494 1494 1494 1495 1493 1491 1489 1488 1487 1487 1485 1484 1483 1482 1480 1479 1478 1477 1476 1475 1473 1472 1470 1469 1467 1466 1464 1462 1461 1459 1458 1457 1455
1489 1489 1489 1490 1490 1490 1490 1490 1489 1489 1487 1485 1484 1483 1482 1481 1479 1478 1477 1475 1474 1473 1472 1470 1469 1468 1467 1465 1464 1462 1461 1459 1457 1456 1454 1453 1451 1450
1485 1485 1485 1486 1485 1485 1485 1485 1484 1484 1482 1480 1480 1479 1478 1476 1475 1473 1472 1471 1470 1468 1467 1465 1464 1463 1461 1460 1459 1457 1455 1454 1452 1450 1449 1447 1446 1444
1481 1481 1481 1481 1481 1481 1480 1480 1479 1479 1478 1476 1475 1474 1473 1471 1470 1468 1467 1466 1465 1463 1461 1460 1459 1458 1456 1455 1453 1452 1450 1448 1446 1444 1443 1441 1440 1439
1477 1476 1476 1476 1476 1476 1475 1475 1475 1474 1473 1472 1470 1469 1468 1466 1465 1463 1462 1461 1460 1458 1456 1455 1454 1452 1451 1449 1448 1446 1444 1443 1441 1439 1437 1436 1434 1433
1472 1472 1471 1471 1471 1471 1470 1470 1470 1469 1468 1467 1465 1464 1463 1462 1461 1459 1457 1456 1455 1453 1452 1450 1448 1447 1446 1444 1443 1441 1439 1437 1435 1434 1432 1430 1428 1427
1467 1466 1466 1466 1466 1466 1465 1465 1465 1464 1463 1462 1461 1459 1458 1457 1456 1454 1453 1451 1450 1449 1447 1445 1444 1442 1440 1439 1437 1435 1434 1432 1430 1428 1426 1425 1423 1422
1462 1461 1461 1460 1460 1460 1460 1460 1460 1459 1458 1457 1456 1454 1453 1453 1451 1450 1448 1446 1444 1444 1443 1440 1439 1437 1435 1434 1432 1430 1428 1426 1425 1423 1421 1420 1418 1417
1457 1456 1456 1455 1455 1455 1454 1454 1453 1453 1453 1453 1451 1449 1449 1448 1447 1445 1444 1442 1440 1439 1438 1435 1434 1432 1430 1429 1427 1425 1423 1421 1419 1418 1416 1415 1413 1412
1452 1451 1451 1450 1450 1450 1449 1448 1448 1447 1447 1446 1446 1445 1444 1444 1443 1442 1440 1437 1436 1434 1433 1431 1428 1427 1425 1423 1421 1419 1417 1415 1414 1412 1411 1410 1408 1406
1447 1447 1446 1446 1445 1445 1444 1443 1442 1442 1442 1441 1440 1440 1439 1439 1438 1436 1434 1433 1430 1429 1428 1426 1424 1422 1419 1417 1416 1414 1412 1410 1409 1407 1406 1405 1403 1401
1443 1442 1442 1441 1441 1440 1439 1439 1437 1437 1436 1435 1435 1434 1434 1433 1432 1431 1430 1428 1426 1424 1423 1422 1419 1418 1414 1412 1411 1409 1407 1405 1404 1403 1401 1400 1398 1397
1438 1438 1437 1437 1436 1435 1435 1434 1433 1433 1432 1431 1430 1429 1428 1427 1426 1426 1425 1424 1422 1420 1419 1418 1415 1414 1412 1408 1406 1405 1403 1401 1400 1398 1397 1396 1394 1393
1434 1434 1433 1432 1432 1431 1430 1429 1429 1428 1427 1426 1425 1424 1423 1422 1421 1421 1420 1418 1417 1415 1414 1413 1411 1409 1407 1404 1402 1400 1399 1397 1395 1394 1392 1391 1390 1388
1431 1430 1429 1428 1427 1426 1426 1425 1424 1423 1422 1421 1420 1419 1418 1418 1416 1415 1414 1413 1411 1410 1409 1408 1407 1405 1403 1401 1398 1396 1394 1392 1391 1390 1388 1386 1385 1383
1426 1426 1425 1424 1423 1422 1421 1420 1419 1419 1418 1417 1416 1415 1413 1412 1411 1410 1409 1408 1406 1405 1404 1403 1402 1400 1398 1397 1395 1392 1390 1389 1387 1386 1384 1382 1381 1379
1422 1421 1420 1420 1418 1417 1416 1415 1414 1414 1413 1412 1411 1410 1409 1408 1407 1406 1405 1403 1402 1400 1398 1398 1397 1396 1394 1392 1390 1388 1386 1385 1383 1382 1380 1378 1376 1375
1419 1417 1416 1415 1414 1413 1412 1410 1410 1409 1408 1407 1406 1405 1404 1403 1402 1401 1400 1398 1397 1395 1394 1393 1392 1391 1389 1387 1386 1384 1382 1381 1379 1378 1376 1373 1371 1370
1414 1413 1411 1410 1409 1408 1407 1406 1405 1404 1403 1402 1401 1400 1400 1399 1398 1396 1395 1393 1392 1391 1390 1389 1388 1387 1385 1383 1381 1381 1379 1377 1375 1373 1371 1370 1367 1365
1409 1408 1407 1406 1404 1403 1402 1401 1400 1400 1399 1398 1397 1396 1395 1394 1392 1391 1390 1389 1388 1387 1386 1385 1384 1383 1382 1380 1378 1376 1376 1374 1371 1369 1367 1365 1363 1361
1405 1404 1402 1401 1400 1399 1398 1397 1396 1395 1394 1393 1392 1391 1390 1389 1387 1386 1385 1385 1384 1383 1382 1381 1380 1380 1378 1377 1375 1372 1372 1370 1369 1366 1364 1361 1359 1357
1400 1399 1398 1397 1395 1394 1393 1392 1391 1390 1389 1388 1387 1386 1385 1384 1383 1382 1382 1381 1380 1379 1378 1378 1377 1376 1375 1374 1371 1369 1368 1367 1365 1363 1361 1359 1357 1354
1396 1394 1393 1392 1391 1390 1388 1387 1386 1385 1384 1383 1382 1381 1380 1380 1379 1378 1378 1377 1377 1376 1375 1374 1373 1373 1371 1370 1369 1367 1365 1363 1361 1360 1358 1356 1355 1353